NKS108 MMSD-KSAN

Flight info

Callsign NKS108
Flight time N/A
Altitude 36000
Route ANEGO1B ANEGO UL312 SQN UT64 TIJ
Aircraft A320/M-SDE3FGHIRWY/LB1

Departure

Time 2026-04-22 18:01
Airport Los Cabos International Airport (MMSD)

Arrival

Time N/A
Airport San Diego International Airport (KSAN)
Time Latitude Longitude Altitude Speed Heading
2026-04-22 17:22 23.15679 -109.71763 387 ft 0 kts 84°
2026-04-22 17:50 23.15678 -109.71777 386 ft 3 kts 84°
2026-04-22 17:50 23.15677 -109.71796 386 ft 3 kts 84°
2026-04-22 17:50 23.15675 -109.71815 386 ft 3 kts 84°
2026-04-22 17:51 23.15671 -109.71834 386 ft 3 kts 54°
2026-04-22 17:51 23.15659 -109.71847 387 ft 1 kts 22°
2026-04-22 17:54 23.15673 -109.71842 386 ft 5 kts 15°
2026-04-22 17:54 23.15729 -109.71845 387 ft 11 kts 356°
2026-04-22 17:54 23.15820 -109.71853 386 ft 14 kts 353°
2026-04-22 17:55 23.15881 -109.71862 386 ft 13 kts 352°
2026-04-22 17:55 23.15965 -109.71873 386 ft 11 kts 354°
2026-04-22 17:55 23.16070 -109.71882 386 ft 11 kts 355°
2026-04-22 17:55 23.16133 -109.71909 386 ft 10 kts 299°
2026-04-22 17:56 23.16157 -109.71974 386 ft 10 kts 321°
2026-04-22 17:56 23.16230 -109.71987 386 ft 11 kts 354°
2026-04-22 17:56 23.16313 -109.71996 386 ft 13 kts 354°
2026-04-22 17:56 23.16404 -109.72005 386 ft 14 kts 354°
2026-04-22 17:57 23.16504 -109.72017 386 ft 15 kts 354°
2026-04-22 17:57 23.16556 -109.72031 386 ft 6 kts 314°
2026-04-22 17:57 23.16558 -109.72049 386 ft 0 kts 269°
2026-04-22 17:59 23.16558 -109.72051 386 ft 1 kts 269°
2026-04-22 17:59 23.16556 -109.72096 387 ft 11 kts 265°
2026-04-22 17:59 23.16547 -109.72184 388 ft 12 kts 264°
2026-04-22 18:00 23.16506 -109.72225 388 ft 0 kts 174°
2026-04-22 18:00 23.16341 -109.72205 388 ft 57 kts 174°
2026-04-22 18:00 23.15979 -109.72164 387 ft 97 kts 174°
2026-04-22 18:00 23.15148 -109.72068 388 ft 144 kts 174°
2026-04-22 18:01 23.14042 -109.71951 646 ft 163 kts 173°
2026-04-22 18:01 23.12911 -109.71837 1272 ft 164 kts 174°
2026-04-22 18:01 23.11770 -109.71702 1818 ft 166 kts 172°
2026-04-22 18:01 23.10194 -109.71499 2295 ft 184 kts 172°
2026-04-22 18:02 23.08929 -109.71348 2533 ft 202 kts 172°
2026-04-22 18:02 23.07462 -109.71177 2756 ft 223 kts 172°
2026-04-22 18:02 23.06395 -109.71045 2875 ft 242 kts 172°
2026-04-22 18:02 23.04638 -109.70902 3278 ft 262 kts 185°
2026-04-22 18:03 23.02945 -109.71656 3950 ft 270 kts 221°
2026-04-22 18:03 23.01944 -109.73352 4786 ft 272 kts 255°
2026-04-22 18:03 23.01993 -109.75378 5600 ft 275 kts 288°
2026-04-22 18:03 23.03046 -109.77120 6380 ft 281 kts 312°
2026-04-22 18:04 23.04454 -109.78597 7113 ft 283 kts 313°
2026-04-22 18:04 23.05892 -109.80069 7854 ft 285 kts 313°
2026-04-22 18:04 23.07351 -109.81544 8600 ft 288 kts 313°
2026-04-22 18:04 23.08758 -109.83045 9355 ft 287 kts 306°
2026-04-22 18:05 23.09925 -109.84794 10046 ft 285 kts 297°
2026-04-22 18:05 23.10943 -109.86694 10361 ft 301 kts 295°
2026-04-22 18:05 23.11997 -109.88755 10474 ft 324 kts 300°
2026-04-22 18:05 23.13504 -109.90645 10891 ft 338 kts 315°
2026-04-22 18:06 23.15449 -109.92120 11522 ft 343 kts 326°
2026-04-22 18:06 23.17514 -109.93448 12125 ft 347 kts 326°
2026-04-22 18:06 23.19602 -109.94792 12703 ft 350 kts 326°
2026-04-22 18:06 23.21660 -109.96144 13385 ft 350 kts 326°
2026-04-22 18:07 23.23729 -109.97538 14038 ft 351 kts 326°
2026-04-22 18:07 23.25815 -109.98957 14527 ft 355 kts 325°
2026-04-22 18:07 23.27918 -110.00378 15082 ft 357 kts 326°
2026-04-22 18:07 23.30046 -110.01786 15618 ft 359 kts 326°
2026-04-22 18:08 23.32198 -110.03191 16145 ft 362 kts 326°
2026-04-22 18:08 23.34368 -110.04601 16645 ft 365 kts 326°
2026-04-22 18:08 23.36547 -110.06039 17204 ft 367 kts 325°
2026-04-22 18:08 23.38725 -110.07494 17743 ft 369 kts 325°
2026-04-22 18:09 23.40918 -110.08966 18273 ft 371 kts 325°
2026-04-22 18:09 23.43093 -110.10429 18727 ft 374 kts 325°
2026-04-22 18:09 23.45313 -110.11922 19180 ft 376 kts 325°
2026-04-22 18:09 23.47550 -110.13420 19645 ft 379 kts 326°
2026-04-22 18:10 23.49800 -110.14923 20110 ft 381 kts 326°
2026-04-22 18:10 23.52069 -110.16439 20587 ft 383 kts 326°
2026-04-22 18:10 23.54239 -110.18128 21033 ft 383 kts 316°
2026-04-22 18:10 23.56157 -110.20142 21486 ft 385 kts 313°
2026-04-22 18:11 23.58062 -110.22203 21944 ft 387 kts 313°
2026-04-22 18:11 23.59981 -110.24282 22396 ft 389 kts 313°
2026-04-22 18:11 23.61881 -110.26340 22825 ft 392 kts 313°
2026-04-22 18:11 23.63823 -110.28440 23266 ft 394 kts 314°
2026-04-22 18:12 23.65775 -110.30549 23690 ft 397 kts 314°
2026-04-22 18:12 23.67741 -110.32678 24054 ft 399 kts 314°
2026-04-22 18:12 23.69711 -110.34813 24428 ft 400 kts 313°
2026-04-22 18:12 23.71688 -110.36958 24799 ft 402 kts 313°
2026-04-22 18:13 23.73669 -110.39108 25170 ft 403 kts 313°
2026-04-22 18:13 23.75635 -110.41239 25532 ft 404 kts 313°
2026-04-22 18:13 23.77635 -110.43404 25896 ft 405 kts 313°
2026-04-22 18:13 23.79636 -110.45573 26254 ft 406 kts 313°
2026-04-22 18:14 23.81643 -110.47753 26609 ft 408 kts 313°
2026-04-22 18:14 23.83656 -110.49943 26947 ft 409 kts 313°
2026-04-22 18:14 23.85675 -110.52141 27288 ft 410 kts 313°
2026-04-22 18:14 23.87699 -110.54345 27623 ft 412 kts 313°
2026-04-22 18:15 23.89738 -110.56556 27957 ft 413 kts 314°
2026-04-22 18:15 23.91849 -110.58699 28305 ft 415 kts 316°
2026-04-22 18:15 23.94012 -110.60738 28648 ft 417 kts 317°
2026-04-22 18:15 23.96252 -110.62764 28988 ft 419 kts 318°
2026-04-22 18:16 23.98516 -110.64784 29326 ft 421 kts 318°
2026-04-22 18:16 24.00786 -110.66819 29655 ft 423 kts 317°
2026-04-22 18:16 24.03051 -110.68881 29990 ft 424 kts 317°
2026-04-22 18:16 24.05307 -110.70966 30331 ft 424 kts 317°
2026-04-22 18:17 24.07439 -110.72951 30725 ft 422 kts 316°
2026-04-22 18:17 24.09669 -110.75032 31131 ft 421 kts 316°
2026-04-22 18:17 24.11888 -110.77106 31538 ft 419 kts 316°
2026-04-22 18:17 24.14068 -110.79146 31941 ft 417 kts 316°
2026-04-22 18:18 24.16271 -110.81207 32355 ft 416 kts 316°
2026-04-22 18:18 24.18465 -110.83257 32769 ft 414 kts 316°
2026-04-22 18:18 24.20652 -110.85301 33195 ft 412 kts 316°
2026-04-22 18:18 24.22831 -110.87336 33617 ft 411 kts 316°
2026-04-22 18:19 24.24998 -110.89360 34023 ft 409 kts 316°
2026-04-22 18:19 24.27159 -110.91378 34371 ft 408 kts 316°
2026-04-22 18:19 24.29314 -110.93393 34708 ft 406 kts 316°
2026-04-22 18:19 24.31459 -110.95401 35029 ft 405 kts 316°
2026-04-22 18:20 24.33566 -110.97375 35339 ft 403 kts 316°
2026-04-22 18:20 24.35697 -110.99370 35644 ft 402 kts 316°
2026-04-22 18:20 24.37819 -111.01356 35935 ft 401 kts 316°
2026-04-22 18:20 24.39943 -111.03346 36069 ft 401 kts 316°
2026-04-22 18:21 24.42064 -111.05335 36097 ft 402 kts 316°
2026-04-22 18:21 24.46327 -111.09333 36092 ft 403 kts 316°
2026-04-22 18:22 24.50553 -111.13300 36091 ft 403 kts 316°
2026-04-22 18:22 24.54804 -111.17301 36095 ft 402 kts 316°
2026-04-22 18:23 24.59053 -111.21297 36096 ft 402 kts 316°
2026-04-22 18:23 24.63305 -111.25297 36100 ft 402 kts 316°
2026-04-22 18:24 24.69675 -111.31303 36109 ft 402 kts 316°
2026-04-22 18:25 24.76022 -111.37276 36111 ft 402 kts 316°
2026-04-22 18:25 24.80256 -111.41286 36113 ft 401 kts 316°
2026-04-22 18:26 24.86602 -111.47300 36112 ft 401 kts 316°
2026-04-22 18:26 24.90799 -111.51277 36110 ft 401 kts 316°
2026-04-22 18:27 24.95025 -111.55280 36114 ft 401 kts 316°
2026-04-22 18:27 24.99249 -111.59287 36108 ft 400 kts 315°
2026-04-22 18:28 25.03467 -111.63292 36114 ft 400 kts 315°
2026-04-22 18:28 25.07661 -111.67276 36118 ft 400 kts 315°
2026-04-22 18:29 25.11872 -111.71288 36117 ft 400 kts 315°
2026-04-22 18:29 25.16081 -111.75301 36117 ft 400 kts 315°
2026-04-22 18:30 25.22394 -111.81323 36122 ft 400 kts 315°
2026-04-22 18:31 25.26572 -111.85317 36122 ft 400 kts 315°
2026-04-22 18:31 25.30825 -111.89275 36121 ft 402 kts 321°
2026-04-22 18:32 25.35439 -111.92786 36126 ft 402 kts 321°
2026-04-22 18:32 25.40053 -111.96285 36126 ft 402 kts 321°
2026-04-22 18:33 25.44631 -111.99770 36121 ft 402 kts 321°